Location: Mount Kobau Star Party
(49.1167°N, 119.7333°W)
Time: 09:13:41
(UTC-07:00)

ISS - Pass Details

Date: 21 August 2025
Orbit: 414 x 424 km, 51.6° (Epoch: 14 May)

Event Time Altitude Azimuth Distance (km) Brightness Sun altitude
Exits shadow 05:13:41 10° 227° (SW) 1,547 -1.5 -7.8°
Reaches altitude 10° 05:13:45 10° 227° (SW) 1,523 -1.5 -7.8°
Maximum altitude 05:17:04 49° 151° (SSE) 556 -3.1 -7.3°
Drops below altitude 10° 05:20:22 10° 75° (ENE) 1,514 0.7 -6.8°
Sets 05:22:30 0° 70° (ENE) 2,377 2.5 -6.5°
